Lake Houston Weather Center

Moon Phase Calendar



Lake Houston Water Level
Online Cameras

 


      

Current Conditions in Atascocita
8/7/2022 2:45:04 PM

96°F
Feels Like 108
Clouds
Humidity
57%
Pressure
30.03"
Wind
5 mph (S)
Dew Point
78°F
UV Index
8/10 (Very High)
Visibility
6 mi

Hourly Forecast

Date & Time Sun, Aug 7
2:00 PM
Sun, Aug 7
3:00 PM
Sun, Aug 7
4:00 PM
Sun, Aug 7
5:00 PM
Sun, Aug 7
6:00 PM
Sun, Aug 7
7:00 PM
Sun, Aug 7
8:00 PM
Sun, Aug 7
9:00 PM
Sun, Aug 7
10:00 PM
Sun, Aug 7
11:00 PM
Mon, Aug 8
12:00 AM
Mon, Aug 8
1:00 AM
Mon, Aug 8
2:00 AM
Mon, Aug 8
3:00 AM
Mon, Aug 8
4:00 AM
Mon, Aug 8
5:00 AM
Mon, Aug 8
6:00 AM
Mon, Aug 8
7:00 AM
Mon, Aug 8
8:00 AM
Mon, Aug 8
9:00 AM
Mon, Aug 8
10:00 AM
Mon, Aug 8
11:00 AM
Mon, Aug 8
12:00 PM
Mon, Aug 8
1:00 PM
Mon, Aug 8
2:00 PM
Mon, Aug 8
3:00 PM
Mon, Aug 8
4:00 PM
Mon, Aug 8
5:00 PM
Mon, Aug 8
6:00 PM
Mon, Aug 8
7:00 PM
Mon, Aug 8
8:00 PM
Mon, Aug 8
9:00 PM
Mon, Aug 8
10:00 PM
Mon, Aug 8
11:00 PM
Tue, Aug 9
12:00 AM
Tue, Aug 9
1:00 AM
Tue, Aug 9
2:00 AM
Tue, Aug 9
3:00 AM
Tue, Aug 9
4:00 AM
Tue, Aug 9
5:00 AM
Tue, Aug 9
6:00 AM
Tue, Aug 9
7:00 AM
Tue, Aug 9
8:00 AM
Tue, Aug 9
9:00 AM
Tue, Aug 9
10:00 AM
Tue, Aug 9
11:00 AM
Tue, Aug 9
12:00 PM
Tue, Aug 9
1:00 PM
Condition
Clouds

Clouds

Clouds

Clouds

Clouds

Clouds

Clouds

Clouds

Clouds

Clouds

Clouds

Clouds

Clear

Clear

Clear

Clouds

Clouds

Clouds

Clear

Clear

Clear

Clear

Clear

Clear

Clouds

Clouds

Clouds

Clouds

Clouds

Clouds

Clear

Clear

Clear

Clear

Clear

Clear

Clouds

Clouds

Clouds

Clouds

Clouds

Clouds

Clouds

Clouds

Clouds

Clouds

Clouds

Clouds
Temperature 96°F96°F95°F94°F92°F90°F85°F83°F82°F82°F81°F81°F81°F80°F80°F79°F79°F79°F82°F85°F88°F92°F94°F97°F98°F98°F96°F94°F91°F89°F86°F84°F84°F83°F82°F81°F81°F80°F80°F79°F79°F79°F82°F85°F88°F91°F94°F97°F
Feels Like 108°F108°F108°F106°F102°F97°F91°F90°F88°F87°F87°F86°F85°F85°F80°F79°F79°F79°F88°F93°F96°F98°F100°F102°F103°F104°F102°F100°F97°F94°F92°F90°F90°F88°F87°F86°F85°F85°F80°F79°F79°F79°F87°F92°F95°F96°F98°F101°F
Cloudiness 72%71%70%69%67%67%31%23%18%16%13%11%3%5%7%11%11%11%10%7%6%6%5%5%19%28%36%32%27%23%6%4%5%5%7%8%29%50%67%73%78%76%83%90%72%71%74%78%
Visibility 6 mi6 mi6 mi6 mi6 mi6 mi6 mi6 mi6 mi6 mi6 mi6 mi6 mi6 mi6 mi6 mi6 mi6 mi6 mi6 mi6 mi6 mi6 mi6 mi6 mi6 mi6 mi6 mi6 mi6 mi6 mi6 mi6 mi6 mi6 mi6 mi6 mi6 mi6 mi6 mi6 mi6 mi6 mi6 mi6 mi6 mi6 mi6 mi
Precipitation 4%8%8%8%8%8%0%0%0%0%0%0%0%0%0%0%0%0%0%0%0%0%0%0%8%8%8%4%4%4%0%0%0%0%0%0%0%0%0%0%0%0%0%0%2%16%20%12%
Humidity 53%57%54%53%54%57%65%71%74%76%77%78%78%80%81%82%83%84%77%68%59%51%44%39%37%38%42%45%49%54%62%68%70%72%74%76%78%78%80%81%83%82%76%67%57%48%42%38%
Dew Point 76°F78°F76°F75°F73°F72°F72°F73°F73°F73°F73°F73°F73°F73°F73°F73°F73°F73°F74°F74°F72°F71°F69°F68°F67°F68°F69°F70°F70°F70°F71°F73°F73°F73°F73°F73°F73°F73°F73°F73°F73°F73°F73°F73°F71°F69°F68°F67°F
Pressure 30.03"30.03"30.03"30.03"30.03"30.03"30.03"30.03"30.06"30.06"30.06"30.06"30.03"30.03"30.03"30.03"30.03"30.06"30.06"30.06"30.06"30.06"30.03"30.03"30"29.97"29.97"29.97"29.97"29.94"29.97"30"30"30"30"30"30"30"30"30"30"30.03"30.06"30.06"30.06"30.06"30.06"30.03"
Wind Speed 11.6 mph13.2 mph13.4 mph13.2 mph12.3 mph12.9 mph11.9 mph10 mph8 mph6.5 mph6 mph5.4 mph4.7 mph3.9 mph3.6 mph3.5 mph3.2 mph2.7 mph2.9 mph4.1 mph4.9 mph5.3 mph6.2 mph7.7 mph10.1 mph13.7 mph14.8 mph15.5 mph15.9 mph15.4 mph12 mph10.5 mph9.6 mph6.9 mph5.8 mph4.3 mph3.6 mph3.3 mph1.6 mph2.5 mph2 mph2 mph2.2 mph2.7 mph4.1 mph4.7 mph5.6 mph6.7 mph
Wind
Direction
159°
SSE
159°
SSE
152°
SSE
148°
SSE
149°
SSE
154°
SSE
153°
SSE
153°
SSE
156°
SSE
153°
SSE
154°
SSE
156°
SSE
147°
SSE
141°
SE
137°
SE
136°
SE
130°
SE
115°
ESE
126°
SE
153°
SSE
156°
SSE
145°
SE
140°
SE
146°
SE
150°
SSE
155°
SSE
153°
SSE
152°
SSE
154°
SSE
156°
SSE
155°
SSE
172°
S
173°
S
169°
S
154°
SSE
158°
SSE
182°
S
185°
S
108°
ESE
75°
ENE
107°
ESE
114°
ESE
151°
SSE
146°
SE
143°
SE
142°
SE
134°
SE
135°
SE

Daily Forecast

Date High Low Precip. Humidity
Today
Aug 7

Rain
96 °F
78 °F
68%
51%
Monday
Aug 8

Clear
98 °F
79 °F
8%
39%
Tuesday
Aug 9

Clouds
97 °F
79 °F
12%
38%
Wednesday
Aug 10

Rain
86 °F
76 °F
80%
77%
Thursday
Aug 11

Rain
81 °F
73 °F
96%
81%
Friday
Aug 12

Rain
89 °F
73 °F
68%
52%
Saturday
Aug 13

Clouds
93 °F
75 °F
8%
46%
Sunday
Aug 14

Clouds
98 °F
77 °F
0%
40%
Monday
Aug 15

Clear
100 °F
78 °F
0%
37%
Tuesday
Aug 16

Clouds
101 °F
79 °F
0%
36%
Wednesday
Aug 17

Clouds
102 °F
80 °F
0%
38%
Thursday
Aug 18

Clouds
99 °F
81 °F
10%
38%
Friday
Aug 19

Clouds
97 °F
81 °F
20%
41%
Saturday
Aug 20

Clouds
98 °F
80 °F
20%
37%
Sunday
Aug 21

Rain
92 °F
81 °F
24%
48%
Monday
Aug 22

Rain
95 °F
80 °F
40%
44%

Temperature 8-14 Day Outlook



Precipitation 8-14 Day Outlook




Quick Links
Lake Houston News
Lake Houston Photos
Lake Houston Videos




About Us
Contact Us
Site Map
Search Site
Advertise With Us
   
Houston.USLakes.info
THE LAKE HOUSTON WEBSITE

Copyright 2022, Lakes Online
Privacy    |    Legal